SCP
2 2 3 3 3 2 2 2 2 2 1 0 0 0 0 0 0 0 0 0 0 0 0 0 0 0 0 0 0 0 0 0 0 0 0 0 0 0 0 0 0 0 0
2 2 2 3 3 2 2 2 2 2 1 0 0 0 0 0 0 0 0 0 0 0 0 0 0 0 0 0 0 0 0 0 0 0 0 0 0 0 0 0 0 0 0
2 2 2 2 2 2 2 2 2 1 0 0 0 0 0 0 0 0 0 0 0 0 0 0 0 0 0 0 0 0 0 0 0 0 0 0 0 0 0 0 0 0 0
2 2 2 2 2 2 2 2 2 1 0 0 0 0 0 0 0 0 0 0 0 0 0 0 0 0 0 0 0 0 0 0 0 0 0 0 0 0 0 0 0 0 0
2 2 1 1 1 1 2 2 2 1 0 0 0 0 0 0 0 0 0 0 0 0 0 0 0 0 0 0 0 0 0 0 0 0 0 0 0 0 0 0 0 0 0
1 1 1 1 1 1 2 2 1 1 0 0 0 0 0 0 0 0 0 0 0 0 0 0 0 0 0 0 0 0 0 0 0 0 0 0 0 0 0 0 0 0 0
1 1 1 1 1 1 1 2 1 1 0 0 0 0 0 0 0 0 0 0 0 0 0 0 0 0 0 0 0 0 0 0 0 0 0 0 0 0 0 0 0 0 0
0 1 1 1 1 1 1 2 1 1 0 0 0 0 0 0 0 0 0 0 0 0 0 0 0 0 0 0 0 0 0 0 0 0 0 0 0 0 0 0 0 0 0
0 0 0 1 1 1 1 1 1 1 0 0 0 0 0 0 0 0 0 0 0 0 0 0 0 0 0 0 0 0 0 0 0 0 0 0 0 0 0 0 0 0 0
0 0 0 1 1 1 1 1 1 1 0 0 0 0 0 0 0 0 0 0 0 0 0 0 0 0 0 0 0 0 0 0 0 0 0 0 0 0 0 0 0 0 0
0 0 0 1 1 1 1 1 1 1 0 0 0 0 0 0 0 0 0 0 0 0 0 0 0 0 0 0 0 0 0 0 0 0 0 0 0 0 0 0 0 0 0
0 0 0 1 1 1 1 1 1 1 0 0 0 0 0 0 0 0 0 0 0 0 0 0 0 0 0 0 0 0 0 0 0 0 0 0 0 0 0 0 0 0 0
0 0 0 0 1 1 1 1 1 1 0 0 0 0 0 0 0 0 0 0 0 0 0 0 0 0 0 0 0 0 0 0 0 0 0 0 0 0 0 0 0 0 0
0 0 0 0 1 1 1 1 1 0 0 0 0 0 0 0 0 0 0 0 0 0 0 0 0 0 0 0 0 0 0 0 0 0 0 0 0 0 0 0 0 0 0
0 0 0 0 0 1 1 1 1 0 0 0 0 0 0 0 0 0 0 0 0 0 0 0 0 0 0 0 0 0 0 0 0 0 0 0 0 0 0 0 0 0 0
0 0 0 0 0 1 1 1 1 1 0 0 0 0 0 0 0 0 0 0 0 0 0 0 0 0 0 0 0 0 0 0 0 0 0 0 0 0 0 0 0 0 0
0 0 0 0 0 0 1 1 1 1 1 0 0 0 0 0 0 0 0 0 0 0 0 0 0 0 0 0 0 0 0 0 0 0 0 0 0 0 0 0 0 0 0
0 0 0 0 0 0 1 1 1 1 1 0 0 0 0 0 0 0 0 0 0 0 0 0 0 0 0 0 0 0 0 0 0 0 0 0 0 0 0 0 0 0 0
0 0 0 0 0 0 0 0 1 1 1 1 0 0 0 0 0 0 0 0 0 0 0 0 0 0 0 0 0 0 0 0 0 0 0 0 0 0 0 0 0 0 0
0 0 0 0 0 0 0 0 1 1 1 1 0 0 0 0 0 0 0 0 0 0 0 0 0 0 0 0 0 0 0 0 0 0 0 0 0 0 0 0 0 0 0
0 0 0 0 0 0 0 1 1 1 1 1 0 0 0 0 0 0 0 0 0 0 0 0 0 0 0 0 0 0 0 0 0 0 0 0 0 0 0 0 0 0 0
0 0 0 0 0 0 0 1 1 1 1 1 0 0 0 0 0 0 0 0 0 0 0 0 0 0 0 0 0 0 0 0 0 0 0 0 0 0 0 0 0 0 0
0 0 0 0 0 0 1 1 1 1 1 0 0 0 0 0 0 0 0 0 0 0 0 0 0 0 0 0 0 0 0 0 0 0 0 0 0 0 0 0 0 0 0
0 0 0 0 0 0 0 1 1 1 0 0 0 0 0 0 0 0 0 0 0 0 0 0 0 0 0 0 0 0 0 0 0 0 0 0 0 0 0 0 0 0 0
0 0 0 0 0 0 0 0 0 0 0 0 0 0 0 0 0 0 0 0 0 0 0 0 0 0 0 0 0 0 0 0 0 0 0 0 0 0 0 0 0 0 0
0 0 0 0 0 0 0 0 0 0 0 0 0 0 0 0 0 0 0 0 0 0 0 0 0 0 0 0 0 0 0 0 0 0 0 0 0 0 0 0 0 0 0
Wind_Speed
7 7 6 7 7 7 8 8 7 8 7 7 6 7 7 6 5 4 4 9 10 11 12 12 11 10 9 8 8 7 6 5 5 5 4 4 4 5 5 6 6 7 8
7 8 8 8 8 8 8 8 9 8 7 6 7 7 7 6 6 5 4 6 9 10 11 11 10 9 9 8 7 6 5 4 3 3 3 3 3 4 5 6 6 7 8
9 8 8 8 9 9 9 7 8 7 7 6 7 7 6 6 6 6 5 3 4 7 9 10 9 9 8 8 6 5 4 3 2 2 1 2 3 4 5 6 7 7 8
10 9 8 8 10 9 8 8 8 7 7 7 6 6 5 6 7 6 5 4 3 3 5 8 9 9 8 7 6 5 4 3 2 1 1 2 3 4 5 6 7 8 9
11 9 9 8 10 9 9 9 8 7 8 7 6 5 5 5 6 6 6 5 4 4 3 5 7 8 8 7 6 5 4 3 2 1 1 3 4 5 6 7 8 9 10
11 9 9 10 10 10 9 9 9 8 8 8 7 5 4 4 4 5 6 5 4 5 4 4 3 4 6 7 6 5 4 4 3 2 2 4 4 5 6 7 8 9 10
11 10 9 11 10 10 12 12 9 10 8 7 6 4 2 1 3 4 4 4 5 5 5 5 3 2 2 6 6 6 5 4 3 3 3 4 5 6 7 8 9 9 10
12 10 11 11 11 10 13 13 11 8 6 8 8 7 4 1 1 2 3 5 5 4 5 5 4 4 3 2 3 5 5 5 4 4 5 5 6 7 8 9 9 10 11
12 12 12 11 12 12 12 14 13 10 10 8 8 7 7 6 3 2 3 4 5 4 4 4 5 5 5 3 3 4 5 5 5 5 5 5 6 7 8 8 9 10 11
12 12 12 13 13 11 12 14 12 10 12 11 7 3 3 6 6 3 2 3 5 5 5 5 5 5 5 4 4 5 5 5 5 5 5 6 6 7 7 8 8 9 11
11 12 12 13 13 12 13 14 12 13 10 11 9 5 4 3 3 5 5 4 2 3 4 5 4 4 4 4 3 4 5 5 5 4 4 5 6 7 7 8 9 10 11
8 12 13 13 13 12 14 14 13 14 11 10 8 6 6 6 5 4 5 5 4 3 3 3 4 4 4 4 5 6 5 4 3 3 3 4 5 6 7 8 9 10 11
8 12 12 12 11 11 12 12 12 13 14 14 11 7 6 5 5 4 5 4 3 1 1 2 3 3 4 3 3 5 4 4 3 2 2 2 3 5 6 8 9 10 11
8 11 12 12 12 13 13 12 11 11 11 12 11 9 6 5 5 5 5 6 4 1 1 3 1 3 3 3 4 5 3 4 3 2 1 1 2 4 5 7 8 10 11
7 11 12 13 12 13 14 14 11 12 11 11 10 10 7 5 5 4 5 6 7 5 4 4 3 2 3 3 5 3 3 3 3 2 1 1 2 3 5 6 7 8 9
9 11 12 13 13 13 13 13 11 12 12 10 8 10 8 5 6 5 5 4 4 5 4 3 3 2 3 3 5 3 3 3 2 2 2 2 2 3 4 5 7 8 9
10 12 13 13 13 14 14 13 12 13 14 12 10 10 10 8 7 6 5 5 4 4 4 2 2 2 3 3 3 2 2 2 1 2 1 1 2 3 4 5 6 7 9
10 11 12 13 13 14 14 15 14 14 15 14 13 11 10 8 9 7 6 6 5 4 5 4 2 2 2 3 3 3 2 1 1 1 1 1 2 3 4 4 5 6 8
9 9 11 13 13 13 14 14 14 14 14 14 13 12 11 11 10 7 7 6 5 4 3 5 3 2 2 2 3 2 1 1 0 0 1 2 2 3 4 4 5 6 7
9 10 11 12 12 12 12 13 13 13 13 12 11 11 11 12 12 10 8 7 6 5 5 5 4 3 2 2 2 2 1 0 1 1 2 2 2 3 4 5 5 6 7
8 9 10 10 11 11 11 13 13 13 13 12 11 10 10 11 13 11 8 8 8 6 5 5 4 3 3 3 3 2 2 1 1 1 1 1 1 1 2 4 5 6 7
6 8 9 10 11 10 13 16 14 13 13 13 12 10 9 11 12 14 14 13 12 10 8 6 4 4 4 4 3 3 3 2 1 1 0 1 1 1 2 2 4 6 7
4 6 8 9 11 12 16 17 17 13 12 12 12 11 8 8 11 9 11 11 10 10 11 9 7 6 6 6 6 4 3 2 2 1 1 1 1 2 2 3 5 6 7
3 4 6 7 9 11 16 18 17 13 11 12 12 13 12 11 10 11 10 8 6 5 6 5 6 6 5 6 6 5 4 3 2 1 1 0 1 2 2 2 4 6 8
3 3 5 6 8 9 13 18 17 11 10 11 11 11 12 12 16 17 13 11 8 5 7 9 9 8 10 10 9 6 5 3 1 1 0 1 1 2 2 2 3 6 8
3 3 3 5 7 8 12 16 18 10 10 9 9 10 14 14 18 19 14 13 11 8 8 8 8 8 7 7 8 5 5 4 2 1 1 1 0 1 2 2 2 3 4
Wind_Direction
178 175 177 173 169 164 164 161 160 161 158 155 153 150 148 147 148 145 151 152 152 152 150 148 145 141 138 132 128 125 119 112 101 88 74 59 46 34 23 16 10 2 358
179 177 179 177 172 171 169 167 165 164 161 157 156 154 151 151 149 147 146 153 155 158 157 155 154 150 147 144 141 137 132 124 112 91 69 47 29 14 6 1 354 350 348
179 178 179 181 174 170 168 166 164 158 156 155 156 155 152 154 154 152 149 146 154 160 163 165 164 164 160 156 153 150 145 141 124 99 55 22 7 355 349 347 345 343 340
178 178 177 185 175 168 164 166 165 160 157 157 157 159 154 154 155 157 153 152 152 154 168 171 173 173 172 170 167 164 163 167 170 175 337 340 339 336 334 336 335 333 331
180 182 179 179 176 169 167 169 167 161 160 159 156 152 153 158 160 160 161 165 164 160 163 175 176 178 181 181 181 183 185 192 210 238 280 307 316 321 322 324 326 325 324
183 183 181 176 177 172 170 168 165 162 159 157 149 138 145 155 160 166 171 171 171 172 171 169 171 183 188 192 192 197 204 214 230 253 280 296 306 313 316 318 319 320 322
182 184 184 178 178 179 174 167 161 160 157 149 129 114 71 105 164 175 174 173 181 182 178 177 176 176 188 196 201 211 222 232 246 266 284 295 302 309 312 316 319 320 322
184 185 186 183 178 177 176 171 161 157 163 159 148 139 130 130 241 194 184 184 187 181 186 186 180 181 180 182 210 217 228 241 254 266 280 290 300 306 310 316 322 325 328
188 186 189 183 181 179 180 176 171 161 165 169 162 152 155 180 177 217 206 194 186 184 191 187 189 189 185 181 193 219 227 242 255 268 280 289 298 305 312 320 324 327 328
190 187 190 185 181 180 179 180 176 167 166 170 170 163 154 148 150 164 215 206 195 194 195 193 191 192 185 181 192 203 216 238 257 271 281 292 300 306 314 322 327 328 328
193 190 190 186 182 180 179 181 177 171 173 174 169 158 144 131 130 145 173 190 201 211 199 194 189 188 187 184 191 205 212 227 246 266 287 301 309 315 321 325 329 330 330
194 193 191 187 184 180 180 180 178 175 176 174 169 164 161 158 163 151 158 172 188 212 193 190 188 188 186 186 196 194 200 210 227 261 288 305 316 322 326 329 332 333 332
200 195 192 186 184 182 180 178 178 178 179 178 176 174 172 167 154 146 141 149 161 189 178 201 199 188 185 178 187 179 190 194 207 236 276 318 329 327 327 328 331 331 332
203 194 191 186 185 184 181 178 178 179 179 181 180 174 171 172 160 154 150 147 141 162 204 215 192 192 183 175 180 169 181 192 197 198 216 315 322 324 324 327 329 330 333
197 194 189 187 185 185 182 178 181 180 178 183 182 178 175 175 170 161 152 153 151 167 207 208 190 187 177 167 165 161 169 188 185 198 218 271 308 321 323 328 329 331 334
194 190 190 189 185 183 181 181 179 178 178 183 180 179 180 174 170 164 161 160 153 154 182 192 184 159 163 163 161 155 172 177 192 210 228 261 299 320 323 327 329 330 331
198 192 191 188 184 182 182 183 183 178 180 183 182 183 184 173 170 169 165 163 160 146 159 157 132 132 144 152 144 144 151 168 199 216 236 271 307 311 316 324 328 330 332
202 196 190 187 186 184 183 184 185 182 183 185 184 183 183 176 174 171 170 171 168 157 151 159 145 137 141 154 146 142 137 143 190 218 226 290 305 314 322 329 333 334 336
200 192 190 189 188 186 185 186 186 185 186 186 184 184 181 176 178 172 170 171 167 153 138 142 144 129 120 127 125 116 112 80 345 263 282 304 311 323 328 333 333 335 338
193 193 193 189 188 188 187 184 185 184 183 182 182 183 181 182 180 173 172 172 160 149 137 134 133 130 122 118 127 142 141 70 349 4 348 332 343 3 352 343 336 336 338
197 194 190 188 188 189 188 183 183 181 179 178 179 182 181 180 178 175 172 171 164 158 150 144 141 135 146 155 176 162 156 128 347 15 339 325 343 351 341 332 330 334 338
201 195 192 191 192 195 186 182 182 179 177 177 178 178 176 175 173 170 166 164 164 163 165 161 162 169 178 173 149 146 138 138 241 280 13 298 1 319 310 298 326 342 343
205 199 196 194 196 193 184 179 180 177 177 179 178 175 173 173 166 164 156 149 153 156 160 163 166 179 172 172 156 150 157 157 186 208 98 280 327 298 297 316 336 347 351
207 201 196 198 194 191 181 177 174 176 176 178 178 174 170 169 169 158 148 144 140 141 150 150 160 165 156 154 158 154 145 117 91 34 83 210 303 296 312 316 325 351 353
212 208 201 195 189 187 180 176 172 175 175 177 174 171 169 170 165 154 150 147 138 124 113 118 116 119 125 132 132 120 124 118 137 222 83 132 292 313 313 309 321 344 349
220 217 215 199 188 185 178 178 174 174 173 172 167 168 170 168 163 159 158 155 153 148 134 117 106 101 104 120 125 134 149 142 141 197 200 131 120 1 325 309 316 328 341